Location: Agadir Mansour Mhndou
(31.2424°N, 8.7730°W)
Time: 19:05:39
(UTC+00:00)

H-2A R/B - Pass Details

Date: 16 October 2021
Orbit: 528 x 650 km, 98.3° (Epoch: 08 December)

Event Time Altitude Azimuth Distance (km) Brightness Sun altitude
Rises 18:48:28 0° 147° (SSE) 2,946 5.7 -10.7°
Reaches altitude 10° 18:50:49 10° 138° (SE) 2,032 4.9 -11.2°
Maximum altitude 18:54:51 35° 73° (ENE) 1,028 3.2 -12.0°
Drops below altitude 10° 18:58:48 10° 8° (N) 1,995 5.1 -12.9°
Sets 19:01:06 0° 359° (N) 2,885 6.0 -13.4°
